Location: Melita
(38.4566°N, 122.6369°W)
Time: 16:49:15
(UTC+00:00)

NOSS 3-2 (C) - Pass Details

Date: 24 January 2020
Orbit: 813 x 1399 km, 63.4° (Epoch: 23 February)

Event Time Altitude Azimuth Distance (km) Brightness Sun altitude
Exits shadow 13:33:12 18° 327° (NNW) 2,616 5.4 -21.3°
Maximum altitude 13:39:21 88° 239° (WSW) 1,321 4.1 -20.1°
Drops below altitude 10° 13:47:55 10° 150° (SSE) 3,453 6.9 -18.4°
Sets 13:50:53 0° 150° (SSE) 4,442 7.5 -17.9°
